Tracking 23583 objects as of 28-Jul-2021
HD Live streaming from Space Station
objects crossing your sky now

NSS 703 (INTELSAT 703)

Track NSS 703 (INTELSAT 703) now!
NSS 703 (INTELSAT 703) is classified as:


NORAD ID: 23305
Int'l Code: 1994-064A
Perigee: 36,061.9 km
Apogee: 36,072.1 km
Inclination: 8.5 °
Period: 1,450.1 minutes
Semi major axis: 42438 km
RCS: 0.003 m2 (small)
Launch date: October 6, 1994
Source: SOCIETE EUROPEENNE DES SATELLITES (SES)
Launch site: AIR FORCE EASTERN TEST RANGE (AFETR)

Africa, Japan, India, China, Australia; 26 C-band, 10 Ku-band; shared capacity with Intelset.
aabbcc
Your satellite tracking list
Your tracking list is empty




NASA's NSSDC Master Catalog

Two Line Element Set (TLE):
1 23305U 94064A   21208.44978483 -.00000240  00000-0  00000-0 0  9993
2 23305   8.5407  48.8243 0001198 145.3743 216.8067  0.99304820 98006
Source of the keplerian elements: AFSPC